Time,TemperatureF,DewpointF,PressureIn,WindDirection,WindDirectionDegrees,WindSpeedMPH,WindSpeedGustMPH,Humidity,HourlyPrecipIn,Conditions,Clouds,dailyrainin,SoftwareType,DateUTC
2013-01-25 00:02:00,21.0,9.0,30.35,SE,130,7.0,13.0,60,0.00,,,0.00,,2013-01-25 00:02:00,
2013-01-25 00:12:00,21.0,9.0,30.35,SE,130,7.0,13.0,60,0.00,,,0.00,,2013-01-25 00:12:00,
2013-01-25 00:22:00,21.0,10.0,30.34,SE,133,2.0,9.0,61,0.00,,,0.00,,2013-01-25 00:22:00,
2013-01-25 00:32:00,21.0,10.0,30.34,SE,126,5.0,8.0,61,0.00,,,0.00,,2013-01-25 00:32:00,
2013-01-25 00:42:00,21.0,10.0,30.34,SE,126,5.0,8.0,61,0.00,,,0.00,,2013-01-25 00:42:00,
2013-01-25 00:52:00,21.0,10.0,30.33,SE,132,4.0,10.0,61,0.00,,,0.00,,2013-01-25 00:52:00,
2013-01-25 01:01:00,21.0,10.0,30.33,SE,132,6.0,8.0,61,0.00,,,0.00,,2013-01-25 01:01:00,
2013-01-25 01:12:00,21.0,10.0,30.33,SE,132,6.0,8.0,61,0.00,,,0.00,,2013-01-25 01:12:00,
2013-01-25 01:22:00,21.0,10.0,30.33,ESE,120,5.0,7.0,62,0.00,,,0.00,,2013-01-25 01:22:00,
2013-01-25 01:32:00,21.0,10.0,30.32,SE,124,1.0,7.0,62,0.00,,,0.00,,2013-01-25 01:32:00,
2013-01-25 01:42:00,21.0,10.0,30.32,SE,124,1.0,7.0,62,0.00,,,0.00,,2013-01-25 01:42:00,
2013-01-25 01:52:00,21.0,10.0,30.31,ESE,123,2.0,8.0,63,0.00,,,0.00,,2013-01-25 01:52:00,
2013-01-25 02:02:00,21.0,10.0,30.31,SE,130,4.0,7.0,62,0.00,,,0.00,,2013-01-25 02:02:00,
2013-01-25 02:11:00,21.0,10.0,30.31,SE,130,4.0,7.0,62,0.00,,,0.00,,2013-01-25 02:11:00,
2013-01-25 02:22:00,21.0,9.0,30.31,SE,124,5.0,11.0,60,0.00,,,0.00,,2013-01-25 02:22:00,
2013-01-25 02:32:00,22.0,10.0,30.32,SSE,155,2.0,11.0,58,0.00,,,0.00,,2013-01-25 02:32:00,
2013-01-25 02:42:00,22.0,10.0,30.32,SSE,155,2.0,11.0,58,0.00,,,0.00,,2013-01-25 02:42:00,
2013-01-25 02:53:00,22.0,10.0,30.30,SE,131,6.0,14.0,58,0.00,,,0.00,,2013-01-25 02:53:00,
2013-01-25 03:02:00,22.0,9.0,30.28,SE,134,8.0,13.0,57,0.00,,,0.00,,2013-01-25 03:02:00,
2013-01-25 03:12:00,22.0,9.0,30.29,ESE,119,12.0,14.0,57,0.00,,,0.00,,2013-01-25 03:12:00,
2013-01-25 03:22:00,22.0,9.0,30.29,ESE,119,12.0,14.0,57,0.00,,,0.00,,2013-01-25 03:22:00,
2013-01-25 03:33:00,22.0,9.0,30.28,SE,134,11.0,15.0,57,0.00,,,0.00,,2013-01-25 03:33:00,
2013-01-25 03:42:00,22.0,9.0,30.28,SE,134,11.0,15.0,57,0.00,,,0.00,,2013-01-25 03:42:00,
2013-01-25 03:52:00,22.0,9.0,30.29,ESE,123,9.0,15.0,57,0.00,,,0.00,,2013-01-25 03:52:00,
2013-01-25 04:02:00,22.0,9.0,30.27,ESE,113,14.0,14.0,56,0.00,,,0.00,,2013-01-25 04:02:00,
2013-01-25 04:12:00,22.0,9.0,30.27,ESE,113,14.0,14.0,56,0.00,,,0.00,,2013-01-25 04:12:00,
2013-01-25 04:22:00,22.0,9.0,30.24,SE,130,13.0,18.0,56,0.00,,,0.00,,2013-01-25 04:22:00,
2013-01-25 04:32:00,22.0,9.0,30.25,ESE,123,9.0,14.0,56,0.00,,,0.00,,2013-01-25 04:32:00,
2013-01-25 04:41:00,22.0,9.0,30.25,ESE,123,9.0,14.0,56,0.00,,,0.00,,2013-01-25 04:41:00,
2013-01-25 04:52:00,22.0,9.0,30.25,SE,134,8.0,13.0,56,0.00,,,0.00,,2013-01-25 04:52:00,
2013-01-25 05:03:00,22.0,9.0,30.25,SE,136,6.0,13.0,57,0.00,,,0.00,,2013-01-25 05:03:00,
2013-01-25 05:12:00,22.0,9.0,30.25,SE,126,6.0,13.0,56,0.00,,,0.00,,2013-01-25 05:12:00,
2013-01-25 05:22:00,22.0,9.0,30.25,SE,126,6.0,13.0,56,0.00,,,0.00,,2013-01-25 05:22:00,
2013-01-25 05:32:00,22.0,9.0,30.25,SE,138,8.0,12.0,56,0.00,,,0.00,,2013-01-25 05:32:00,
2013-01-25 05:43:00,22.0,9.0,30.25,SE,138,8.0,12.0,56,0.00,,,0.00,,2013-01-25 05:43:00,
2013-01-25 05:52:00,22.0,9.0,30.25,SE,138,10.0,15.0,56,0.00,,,0.00,,2013-01-25 05:52:00,
2013-01-25 06:02:00,22.0,9.0,30.23,SE,128,8.0,13.0,56,0.00,,,0.00,,2013-01-25 06:02:00,
2013-01-25 06:11:00,22.0,9.0,30.23,SE,128,8.0,13.0,56,0.00,,,0.00,,2013-01-25 06:11:00,
2013-01-25 06:21:00,22.0,9.0,30.23,SE,131,6.0,15.0,57,0.00,,,0.00,,2013-01-25 06:21:00,
2013-01-25 06:32:00,21.0,8.0,30.21,SE,127,9.0,18.0,56,0.00,,,0.00,,2013-01-25 06:32:00,
2013-01-25 06:42:00,21.0,8.0,30.21,SE,127,9.0,18.0,56,0.00,,,0.00,,2013-01-25 06:42:00,
2013-01-25 06:52:00,21.0,8.0,30.19,ESE,116,5.0,14.0,57,0.00,,,0.00,,2013-01-25 06:52:00,
2013-01-25 07:02:00,21.0,9.0,30.18,SE,128,9.0,14.0,58,0.00,,,0.00,,2013-01-25 07:02:00,
2013-01-25 07:11:00,21.0,9.0,30.18,SE,128,9.0,14.0,58,0.00,,,0.00,,2013-01-25 07:11:00,
2013-01-25 07:21:00,21.0,9.0,30.18,SE,130,5.0,15.0,58,0.00,,,0.00,,2013-01-25 07:21:00,
2013-01-25 07:32:00,21.0,9.0,30.18,SE,142,5.0,12.0,58,0.00,,,0.00,,2013-01-25 07:32:00,
2013-01-25 07:42:00,21.0,9.0,30.18,SE,142,5.0,12.0,58,0.00,,,0.00,,2013-01-25 07:42:00,
2013-01-25 07:52:00,21.0,9.0,30.18,ESE,122,5.0,11.0,59,0.00,,,0.00,,2013-01-25 07:52:00,
2013-01-25 08:01:00,21.0,9.0,30.17,SE,132,6.0,14.0,58,0.00,,,0.00,,2013-01-25 08:01:00,
2013-01-25 08:11:00,22.0,10.0,30.16,SSE,149,8.0,12.0,58,0.00,,,0.00,,2013-01-25 08:11:00,
2013-01-25 08:21:00,22.0,10.0,30.16,SSE,149,8.0,12.0,58,0.00,,,0.00,,2013-01-25 08:21:00,
2013-01-25 08:32:00,21.0,9.0,30.16,SE,131,7.0,12.0,58,0.00,,,0.00,,2013-01-25 08:32:00,
2013-01-25 08:41:00,21.0,9.0,30.16,SE,131,7.0,12.0,58,0.00,,,0.00,,2013-01-25 08:41:00,
2013-01-25 08:52:00,21.0,9.0,30.15,SSE,151,4.0,14.0,58,0.00,,,0.00,,2013-01-25 08:52:00,
2013-01-25 09:01:00,21.0,9.0,30.14,ESE,107,12.0,12.0,59,0.00,,,0.00,,2013-01-25 09:01:00,
2013-01-25 09:11:00,21.0,9.0,30.14,ESE,107,12.0,12.0,59,0.00,,,0.00,,2013-01-25 09:11:00,
2013-01-25 09:21:00,21.0,9.0,30.12,SSE,155,7.0,13.0,59,0.00,,,0.00,,2013-01-25 09:21:00,
2013-01-25 09:31:00,21.0,9.0,30.11,SSE,165,7.0,12.0,60,0.00,,,0.00,,2013-01-25 09:31:00,
2013-01-25 09:41:00,21.0,9.0,30.11,SSE,165,7.0,12.0,60,0.00,,,0.00,,2013-01-25 09:41:00,
2013-01-25 09:52:00,21.0,12.0,30.09,SSE,147,7.0,18.0,68,0.00,,,0.00,,2013-01-25 09:52:00,
2013-01-25 10:01:00,20.0,13.0,30.08,SSE,151,10.0,17.0,75,0.00,,,0.00,,2013-01-25 10:01:00,
2013-01-25 10:12:00,20.0,13.0,30.08,SSE,151,10.0,17.0,75,0.00,,,0.00,,2013-01-25 10:12:00,
2013-01-25 10:21:00,20.0,15.0,30.09,SSE,151,9.0,13.0,79,0.00,,,0.00,,2013-01-25 10:21:00,
2013-01-25 10:32:00,19.0,15.0,30.08,SSE,148,10.0,17.0,83,0.00,,,0.00,,2013-01-25 10:32:00,
2013-01-25 10:42:00,19.0,15.0,30.08,SSE,148,10.0,17.0,83,0.00,,,0.00,,2013-01-25 10:42:00,
2013-01-25 10:52:00,19.0,16.0,30.08,SSE,153,10.0,12.0,86,0.00,,,0.00,,2013-01-25 10:52:00,
2013-01-25 11:02:00,19.0,16.0,30.07,SSE,153,7.0,14.0,88,0.00,,,0.00,,2013-01-25 11:02:00,
2013-01-25 11:11:00,19.0,16.0,30.07,SSE,153,7.0,14.0,88,0.00,,,0.00,,2013-01-25 11:11:00,
2013-01-25 11:22:00,19.0,16.0,30.08,SSW,196,4.0,11.0,89,0.00,,,0.00,,2013-01-25 11:22:00,
2013-01-25 11:32:00,19.0,17.0,30.07,SSE,153,5.0,10.0,90,0.00,,,0.00,,2013-01-25 11:32:00,
2013-01-25 11:42:00,19.0,17.0,30.07,SSE,153,5.0,10.0,90,0.00,,,0.00,,2013-01-25 11:42:00,
2013-01-25 11:52:00,19.0,17.0,30.06,SSE,159,2.0,9.0,90,0.00,,,0.00,,2013-01-25 11:52:00,
2013-01-25 12:02:00,19.0,17.0,30.06,SSW,200,0.0,9.0,90,0.00,,,0.00,,2013-01-25 12:02:00,
2013-01-25 12:11:00,19.0,17.0,30.06,SSW,200,0.0,9.0,90,0.00,,,0.00,,2013-01-25 12:11:00,
2013-01-25 12:22:00,19.0,17.0,30.05,SSE,150,5.0,8.0,91,0.00,,,0.00,,2013-01-25 12:22:00,
2013-01-25 12:32:00,19.0,17.0,30.03,SSE,150,6.0,11.0,91,0.00,,,0.00,,2013-01-25 12:32:00,
2013-01-25 12:42:00,19.0,17.0,30.03,SSE,150,6.0,11.0,91,0.00,,,0.00,,2013-01-25 12:42:00,
2013-01-25 12:53:00,19.0,17.0,30.04,SSE,148,5.0,8.0,91,0.00,,,0.00,,2013-01-25 12:53:00,
2013-01-25 13:02:00,19.0,17.0,30.03,SSE,157,0.0,11.0,91,0.00,,,0.00,,2013-01-25 13:02:00,
2013-01-25 13:11:00,19.0,17.0,30.03,SSE,157,0.0,11.0,91,0.00,,,0.00,,2013-01-25 13:11:00,
2013-01-25 13:22:00,19.0,17.0,30.04,South,181,2.0,6.0,91,0.00,,,0.00,,2013-01-25 13:22:00,
2013-01-25 13:32:00,19.0,17.0,30.03,SSE,165,2.0,8.0,91,0.00,,,0.00,,2013-01-25 13:32:00,
2013-01-25 13:42:00,19.0,17.0,30.03,SSE,165,2.0,8.0,91,0.00,,,0.00,,2013-01-25 13:42:00,
2013-01-25 13:53:00,19.0,17.0,30.02,South,177,4.0,9.0,91,0.00,,,0.00,,2013-01-25 13:53:00,
2013-01-25 14:02:00,19.0,17.0,30.01,SSE,159,4.0,7.0,91,0.00,,,0.00,,2013-01-25 14:02:00,
2013-01-25 14:12:00,19.0,17.0,30.01,SSE,159,4.0,7.0,91,0.00,,,0.00,,2013-01-25 14:12:00,
2013-01-25 14:22:00,19.0,17.0,30.01,SSE,162,2.0,6.0,91,0.00,,,0.00,,2013-01-25 14:22:00,
2013-01-25 14:32:00,20.0,18.0,30.01,SSE,151,2.0,6.0,91,0.00,,,0.00,,2013-01-25 14:32:00,
2013-01-25 14:42:00,20.0,18.0,30.01,SSE,151,2.0,6.0,91,0.00,,,0.00,,2013-01-25 14:42:00,
2013-01-25 14:53:00,20.0,18.0,30.01,SSW,199,0.0,9.0,91,0.00,,,0.00,,2013-01-25 14:53:00,
2013-01-25 15:02:00,20.0,18.0,30.01,SSW,204,5.0,9.0,90,0.00,,,0.00,,2013-01-25 15:02:00,
2013-01-25 15:12:00,20.0,18.0,30.01,SSW,204,5.0,9.0,90,0.00,,,0.00,,2013-01-25 15:12:00,
2013-01-25 15:22:00,20.0,18.0,30.01,SSW,200,5.0,9.0,90,0.00,,,0.00,,2013-01-25 15:22:00,
2013-01-25 15:32:00,21.0,19.0,30.00,SW,221,6.0,12.0,90,0.00,,,0.00,,2013-01-25 15:32:00,
2013-01-25 15:42:00,21.0,19.0,30.00,SW,221,6.0,12.0,90,0.00,,,0.00,,2013-01-25 15:42:00,
2013-01-25 15:53:00,22.0,19.0,30.01,SW,217,9.0,11.0,89,0.00,,,0.00,,2013-01-25 15:53:00,
2013-01-25 16:03:00,22.0,19.0,29.99,SSW,212,6.0,10.0,87,0.00,,,0.00,,2013-01-25 16:03:00,
2013-01-25 16:12:00,22.0,19.0,29.99,SSW,212,6.0,10.0,87,0.00,,,0.00,,2013-01-25 16:12:00,
2013-01-25 16:22:00,23.0,19.0,29.99,SW,214,4.0,12.0,85,0.00,,,0.00,,2013-01-25 16:22:00,
2013-01-25 16:32:00,24.0,20.0,29.98,SSW,202,8.0,11.0,83,0.00,,,0.00,,2013-01-25 16:32:00,
2013-01-25 16:42:00,24.0,20.0,29.98,SSW,202,8.0,11.0,83,0.00,,,0.00,,2013-01-25 16:42:00,
2013-01-25 16:53:00,24.0,19.0,29.98,SW,225,8.0,14.0,81,0.00,,,0.00,,2013-01-25 16:53:00,
2013-01-25 17:02:00,25.0,19.0,29.98,SW,235,4.0,12.0,79,0.00,,,0.00,,2013-01-25 17:02:00,
2013-01-25 17:12:00,25.0,19.0,29.98,SW,235,4.0,12.0,79,0.00,,,0.00,,2013-01-25 17:12:00,
2013-01-25 17:22:00,25.0,19.0,29.98,WNW,286,5.0,13.0,78,0.00,,,0.00,,2013-01-25 17:22:00,
2013-01-25 17:32:00,25.0,19.0,29.96,WSW,238,7.0,12.0,79,0.00,,,0.00,,2013-01-25 17:32:00,
2013-01-25 17:42:00,25.0,19.0,29.96,WSW,238,7.0,12.0,79,0.00,,,0.00,,2013-01-25 17:42:00,
2013-01-25 17:53:00,28.0,21.0,29.96,West,268,7.0,13.0,75,0.00,,,0.00,,2013-01-25 17:53:00,
2013-01-25 18:02:00,28.0,20.0,29.94,WSW,238,5.0,17.0,72,0.00,,,0.00,,2013-01-25 18:02:00,
2013-01-25 18:12:00,28.0,20.0,29.94,WSW,238,5.0,17.0,72,0.00,,,0.00,,2013-01-25 18:12:00,
2013-01-25 18:23:00,29.0,20.0,29.93,WSW,237,5.0,14.0,70,0.00,,,0.00,,2013-01-25 18:23:00,
2013-01-25 18:32:00,29.0,21.0,29.92,West,269,6.0,16.0,72,0.00,,,0.00,,2013-01-25 18:32:00,
2013-01-25 18:42:00,29.0,21.0,29.92,West,269,6.0,16.0,72,0.00,,,0.00,,2013-01-25 18:42:00,
2013-01-25 18:52:00,30.0,21.0,29.91,WSW,238,7.0,14.0,70,0.00,,,0.00,,2013-01-25 18:52:00,
2013-01-25 19:02:00,30.0,21.0,29.91,SSW,212,10.0,15.0,70,0.00,,,0.00,,2013-01-25 19:02:00,
2013-01-25 19:12:00,30.0,21.0,29.91,SSW,212,10.0,15.0,70,0.00,,,0.00,,2013-01-25 19:12:00,
2013-01-25 19:22:00,30.0,21.0,29.90,West,265,4.0,16.0,69,0.00,,,0.00,,2013-01-25 19:22:00,
2013-01-25 19:32:00,31.0,21.0,29.90,WSW,251,12.0,17.0,66,0.00,,,0.00,,2013-01-25 19:32:00,
2013-01-25 19:42:00,31.0,21.0,29.90,WSW,251,12.0,17.0,66,0.00,,,0.00,,2013-01-25 19:42:00,
2013-01-25 19:53:00,31.0,21.0,29.90,WSW,242,9.0,16.0,65,0.00,,,0.00,,2013-01-25 19:53:00,
2013-01-25 20:02:00,32.0,21.0,29.89,West,271,5.0,17.0,63,0.00,,,0.00,,2013-01-25 20:02:00,
2013-01-25 20:12:00,32.0,21.0,29.89,West,271,5.0,17.0,63,0.00,,,0.00,,2013-01-25 20:12:00,
2013-01-25 20:22:00,33.0,21.0,29.90,WSW,258,9.0,18.0,60,0.00,,,0.00,,2013-01-25 20:22:00,
2013-01-25 20:32:00,33.0,21.0,29.89,WSW,250,6.0,20.0,60,0.00,,,0.00,,2013-01-25 20:32:00,
2013-01-25 20:42:00,33.0,21.0,29.89,WSW,250,6.0,20.0,60,0.00,,,0.00,,2013-01-25 20:42:00,
2013-01-25 20:52:00,34.0,21.0,29.89,SW,222,10.0,18.0,59,0.00,,,0.00,,2013-01-25 20:52:00,
2013-01-25 21:02:00,34.0,20.0,29.89,WSW,255,10.0,15.0,57,0.00,,,0.00,,2013-01-25 21:02:00,
2013-01-25 21:12:00,34.0,20.0,29.89,WSW,255,10.0,15.0,57,0.00,,,0.00,,2013-01-25 21:12:00,
2013-01-25 21:22:00,35.0,21.0,29.90,SW,224,6.0,13.0,56,0.00,,,0.00,,2013-01-25 21:22:00,
2013-01-25 21:32:00,35.0,21.0,29.90,WNW,284,4.0,19.0,57,0.00,,,0.00,,2013-01-25 21:32:00,
2013-01-25 21:42:00,35.0,21.0,29.90,WNW,284,4.0,19.0,57,0.00,,,0.00,,2013-01-25 21:42:00,
2013-01-25 21:52:00,35.0,21.0,29.90,NW,304,10.0,15.0,56,0.00,,,0.00,,2013-01-25 21:52:00,
2013-01-25 22:02:00,34.0,20.0,29.91,West,277,6.0,14.0,57,0.00,,,0.00,,2013-01-25 22:02:00,
2013-01-25 22:11:00,34.0,20.0,29.91,West,277,6.0,14.0,57,0.00,,,0.00,,2013-01-25 22:11:00,
2013-01-25 22:22:00,33.0,22.0,29.91,West,261,5.0,19.0,63,0.00,,,0.00,,2013-01-25 22:22:00,
2013-01-25 22:32:00,30.0,21.0,29.93,WNW,294,8.0,13.0,68,0.00,,,0.00,,2013-01-25 22:32:00,
2013-01-25 22:42:00,30.0,21.0,29.93,WNW,294,8.0,13.0,68,0.00,,,0.00,,2013-01-25 22:42:00,
2013-01-25 22:52:00,29.0,20.0,29.94,NW,315,7.0,18.0,70,0.00,,,0.00,,2013-01-25 22:52:00,
2013-01-25 23:02:00,29.0,21.0,29.94,North,355,1.0,17.0,71,0.00,,,0.00,,2013-01-25 23:02:00,
2013-01-25 23:12:00,29.0,21.0,29.94,North,355,1.0,17.0,71,0.00,,,0.00,,2013-01-25 23:12:00,
2013-01-25 23:22:00,28.0,20.0,29.94,West,275,9.0,14.0,71,0.00,,,0.00,,2013-01-25 23:22:00,
2013-01-25 23:32:00,28.0,20.0,29.94,WNW,291,6.0,11.0,72,0.00,,,0.00,,2013-01-25 23:32:00,
2013-01-25 23:42:00,28.0,20.0,29.94,WNW,291,6.0,11.0,72,0.00,,,0.00,,2013-01-25 23:42:00,
2013-01-25 23:53:00,28.0,20.0,29.94,WNW,292,4.0,8.0,72,0.00,,,0.00,,2013-01-25 23:53:00,